When you browse on this site, cookies collect data to enhance your experience and personalize the content and advertising you see.
Visit our Privacy Policy to learn more. By continuing to use the site, you agree to this use of cookies and data.
  • En España
  • Lista de países
  • Para 7 días
  • Temperatura del agua
  • Mapa Satelital
  • El tiempo en el mapa
  • Informadores
  • user-avatar
    Iniciar sesión

    Tiempo cada hora Korçe

    Hoy, 16 Diciembre, Domingo

    Tiempo Temperatura Precipitaciones Viento Presión Humedad
    00:00 +3°C° 1.7 mm 2 mps 662 mmHg 93%
    01:00 +3°C° 1.7 mm 2 mps 662 mmHg 93%
    02:00 +3°C° 1 mm 2 mps 662 mmHg 94%
    03:00 +3°C° 1 mm 2 mps 662 mmHg 94%
    04:00 +3°C° 1 mm 2 mps 662 mmHg 94%
    05:00 +2°C° 0.2 mm 2 mps 662 mmHg 94%
    06:00 +2°C° 0.2 mm 2 mps 662 mmHg 93%
    07:00 +2°C° 0.2 mm 2 mps 662 mmHg 92%
    08:00 +1°C° 0 mm 3 mps 663 mmHg 88%
    09:00 +2°C° 0 mm 3 mps 663 mmHg 85%
    10:00 +2°C° 0 mm 3 mps 664 mmHg 81%
    11:00 +2°C° 0 mm 3 mps 664 mmHg 77%
    12:00 +2°C° 0 mm 3 mps 664 mmHg 73%
    13:00 +2°C° 0 mm 3 mps 664 mmHg 69%
    14:00 +2°C° 0 mm 3 mps 664 mmHg 72%
    15:00 +1°C° 0 mm 3 mps 664 mmHg 75%
    16:00 +1°C° 0 mm 2 mps 664 mmHg 77%
    17:00 -1°C° 0 mm 2 mps 664 mmHg 81%
    18:00 -1°C° 0 mm 2 mps 664 mmHg 84%
    19:00 -2°C° 0 mm 2 mps 665 mmHg 87%
    20:00 -2°C° 0 mm 2 mps 665 mmHg 86%
    21:00 0°C° 0 mm 1 mps 665 mmHg 86%
    22:00 0°C° 0 mm 1 mps 665 mmHg 85%
    23:00 0°C° 0 mm 1 mps 665 mmHg 83%

    Mañana, 17 Diciembre, Lunes

    Tiempo Temperatura Precipitaciones Viento Presión Humedad
    00:00 0°C° 0 mm 1 mps 665 mmHg 82%
    01:00 0°C° 0 mm 1 mps 665 mmHg 80%
    02:00 0°C° 0 mm 1 mps 665 mmHg 78%
    03:00 0°C° 0 mm 1 mps 665 mmHg 76%
    04:00 0°C° 0 mm 1 mps 665 mmHg 74%
    05:00 +1°C° 0 mm 1 mps 665 mmHg 71%
    06:00 +1°C° 0 mm 1 mps 665 mmHg 67%
    07:00 +2°C° 0 mm 1 mps 665 mmHg 64%
    08:00 +2°C° 0.4 mm 1 mps 665 mmHg 64%
    09:00 +1°C° 0.4 mm 2 mps 665 mmHg 64%
    10:00 +2°C° 0.4 mm 2 mps 665 mmHg 63%
    11:00 +2°C° 0.4 mm 2 mps 665 mmHg 65%
    12:00 +2°C° 0.4 mm 2 mps 664 mmHg 67%
    13:00 +2°C° 0.4 mm 2 mps 664 mmHg 68%
    14:00 +1°C° 0.3 mm 3 mps 663 mmHg 72%
    15:00 +1°C° 0.3 mm 3 mps 663 mmHg 76%
    16:00 0°C° 0.3 mm 3 mps 662 mmHg 81%
    17:00 0°C° 1.9 mm 3 mps 662 mmHg 83%
    18:00 0°C° 1.9 mm 3 mps 662 mmHg 86%
    19:00 0°C° 1.9 mm 3 mps 662 mmHg 89%
    20:00 +1°C° 3 mm 2 mps 662 mmHg 90%
    21:00 +1°C° 3 mm 2 mps 662 mmHg 92%
    22:00 +1°C° 3 mm 2 mps 662 mmHg 94%
    23:00 +1°C° 0.5 mm 2 mps 662 mmHg 93%

    Pasado mañana, 18 Diciembre, Martes

    Tiempo Temperatura Precipitaciones Viento Presión Humedad
    00:00 -1°C° 0.5 mm 2 mps 662 mmHg 92%
    01:00 -1°C° 0.5 mm 2 mps 662 mmHg 92%
    02:00 -1°C° 0.7 mm 2 mps 662 mmHg 91%
    03:00 -1°C° 0.7 mm 2 mps 662 mmHg 91%
    04:00 -2°C° 0.7 mm 2 mps 662 mmHg 91%
    05:00 -2°C° 0.6 mm 2 mps 662 mmHg 91%
    06:00 -2°C° 0.6 mm 2 mps 663 mmHg 91%
    07:00 -2°C° 0.6 mm 2 mps 663 mmHg 90%
    08:00 -1°C° 0.2 mm 3 mps 663 mmHg 89%
    09:00 -1°C° 0.2 mm 3 mps 664 mmHg 89%
    10:00 0°C° 0.2 mm 3 mps 664 mmHg 88%
    11:00 0°C° 0.1 mm 3 mps 665 mmHg 88%
    12:00 0°C° 0.1 mm 3 mps 665 mmHg 87%
    13:00 +1°C° 0.1 mm 3 mps 665 mmHg 87%
    14:00 0°C° 0 mm 3 mps 665 mmHg 87%
    15:00 +1°C° 0 mm 2 mps 665 mmHg 88%
    16:00 +1°C° 0 mm 2 mps 665 mmHg 88%
    17:00 -1°C° 0 mm 2 mps 666 mmHg 88%
    18:00 -2°C° 0 mm 2 mps 666 mmHg 88%
    19:00 -2°C° 0 mm 2 mps 667 mmHg 88%
    20:00 -3°C° 0 mm 2 mps 667 mmHg 87%
    21:00 -3°C° 0 mm 2 mps 667 mmHg 86%
    22:00 -3°C° 0 mm 2 mps 667 mmHg 86%
    23:00 -3°C° 0 mm 2 mps 667 mmHg 85%

    19 Diciembre, Miércoles

    Tiempo Temperatura Precipitaciones Viento Presión Humedad
    00:00 -3°C° 0 mm 2 mps 667 mmHg 84%
    01:00 -3°C° 0 mm 2 mps 667 mmHg 84%
    02:00 -3°C° 0 mm 2 mps 667 mmHg 83%
    03:00 -3°C° 0 mm 2 mps 667 mmHg 82%
    04:00 -3°C° 0 mm 2 mps 667 mmHg 82%
    05:00 -1°C° 0 mm 1 mps 668 mmHg 81%
    06:00 -1°C° 0 mm 1 mps 668 mmHg 80%
    07:00 -1°C° 0 mm 1 mps 668 mmHg 80%
    08:00 +1°C° 0 mm 1 mps 669 mmHg 79%
    09:00 +2°C° 0 mm 1 mps 670 mmHg 79%
    10:00 +3°C° 0 mm 0 mps 670 mmHg 78%
    11:00 +4°C° 0 mm 1 mps 670 mmHg 77%
    12:00 +5°C° 0 mm 1 mps 670 mmHg 76%
    13:00 +6°C° 0 mm 1 mps 670 mmHg 75%
    14:00 +5°C° 0 mm 1 mps 670 mmHg 77%
    15:00 +4°C° 0 mm 1 mps 669 mmHg 78%
    16:00 +2°C° 0 mm 1 mps 669 mmHg 80%
    17:00 +2°C° 0 mm 1 mps 669 mmHg 79%
    18:00 +1°C° 0 mm 1 mps 669 mmHg 78%
    19:00 0°C° 0 mm 1 mps 669 mmHg 77%
    20:00 0°C° 0 mm 1 mps 669 mmHg 75%
    21:00 0°C° 0 mm 1 mps 669 mmHg 72%
    22:00 0°C° 0 mm 1 mps 669 mmHg 70%
    23:00 0°C° 0 mm 1 mps 669 mmHg 69%

    20 Diciembre, Jueves

    Tiempo Temperatura Precipitaciones Viento Presión Humedad
    00:00 0°C° 0 mm 1 mps 669 mmHg 68%
    01:00 0°C° 0 mm 1 mps 669 mmHg 66%
    02:00 0°C° 0 mm 1 mps 669 mmHg 66%
    03:00 0°C° 0 mm 1 mps 669 mmHg 66%
    04:00 0°C° 0 mm 1 mps 669 mmHg 66%
    05:00 -2°C° 0 mm 2 mps 669 mmHg 66%
    06:00 -2°C° 0 mm 2 mps 669 mmHg 67%
    07:00 -2°C° 0 mm 2 mps 669 mmHg 68%
    08:00 -1°C° 0 mm 2 mps 670 mmHg 70%
    09:00 +2°C° 0 mm 2 mps 670 mmHg 72%
    10:00 +3°C° 0 mm 2 mps 671 mmHg 74%
    11:00 +4°C° 0 mm 2 mps 671 mmHg 75%
    12:00 +3°C° 0 mm 3 mps 671 mmHg 77%
    13:00 +4°C° 0 mm 3 mps 670 mmHg 78%
    14:00 +3°C° 0 mm 3 mps 670 mmHg 81%
    15:00 +2°C° 0 mm 3 mps 670 mmHg 84%
    16:00 +2°C° 0 mm 3 mps 670 mmHg 87%
    17:00 +1°C° 0 mm 3 mps 670 mmHg 89%
    18:00 +1°C° 0 mm 3 mps 670 mmHg 90%
    19:00 0°C° 0 mm 3 mps 670 mmHg 91%
    20:00 +1°C° 0.1 mm 3 mps 670 mmHg 91%
    21:00 +1°C° 0.1 mm 3 mps 670 mmHg 90%
    22:00 +1°C° 0.1 mm 3 mps 670 mmHg 90%
    23:00 +1°C° 0.8 mm 3 mps 669 mmHg 91%

    21 Diciembre, Viernes

    Tiempo Temperatura Precipitaciones Viento Presión Humedad
    00:00 +1°C° 0.8 mm 3 mps 669 mmHg 92%
    01:00 +1°C° 0.8 mm 3 mps 669 mmHg 93%
    02:00 +2°C° 1.1 mm 2 mps 669 mmHg 94%
    03:00 +2°C° 1.1 mm 2 mps 669 mmHg 95%
    04:00 +2°C° 1.1 mm 2 mps 669 mmHg 96%
    05:00 +2°C° 0.7 mm 2 mps 669 mmHg 96%
    06:00 +3°C° 0.7 mm 1 mps 669 mmHg 96%
    07:00 +3°C° 0.7 mm 1 mps 669 mmHg 96%
    08:00 +4°C° 0.3 mm 1 mps 669 mmHg 94%
    09:00 +5°C° 0.3 mm 1 mps 669 mmHg 92%
    10:00 +5°C° 0.3 mm 1 mps 669 mmHg 90%
    11:00 +5°C° 0.3 mm 2 mps 669 mmHg 87%
    12:00 +5°C° 0.3 mm 2 mps 669 mmHg 85%
    13:00 +5°C° 0.3 mm 2 mps 668 mmHg 82%
    14:00 +5°C° 0.2 mm 2 mps 668 mmHg 84%
    15:00 +5°C° 0.2 mm 1 mps 668 mmHg 86%
    16:00 +4°C° 0.2 mm 1 mps 668 mmHg 88%
    17:00 +4°C° 0.1 mm 1 mps 668 mmHg 89%
    18:00 +3°C° 0.1 mm 1 mps 668 mmHg 90%
    19:00 +2°C° 0.1 mm 1 mps 668 mmHg 91%
    20:00 +2°C° 0.1 mm 1 mps 668 mmHg 92%
    21:00 +2°C° 0.1 mm 1 mps 668 mmHg 92%
    22:00 +2°C° 0.1 mm 1 mps 668 mmHg 92%
    23:00 +2°C° 0.1 mm 1 mps 668 mmHg 92%
    Mostrar más